Zurück zum Katalog

COSMOS 970 DEB

AktivLEO
NORAD 12870·DEBRIS·🇷🇺 Russia

Gestartet Dec 21, 1977 von Baikonur Cosmodrome

Loading…

Nächste Überflüge (nächste 24 Stunden)

TLE

AktuellSource: Space-Track

Epoche: Sep 14, 2026, 00:47 UTC

1 12870U 77121AY  26257.03279410  .00000519  00000-0  46816-3 0  9997
2 12870  65.7223 277.6766 0115118 343.4997  36.4513 13.89421960441792

Verfolge COSMOS 970 DEB in Echtzeit mit AllMySat

Download on the App Store